Lapse_Rate
6.3 6.2 6.2 6.4 6.4 6.3 6.6 6.6 6.7 6.8 6.9 6.8 6.9 6.9 6.7 6.7 6.6 6.5 6.2 6.0 6.0 6.0
6.5 6.4 6.3 6.3 6.4 6.3 6.3 6.4 6.6 6.9 6.9 6.9 6.9 6.9 6.7 6.7 6.6 6.5 6.3 6.2 6.1 6.1
6.7 6.6 6.6 6.4 6.6 6.4 6.3 6.4 6.9 7.0 6.9 7.0 7.0 6.9 6.7 6.7 6.6 6.5 6.5 6.5 6.2 6.1
6.9 6.8 6.7 6.8 6.7 6.6 6.6 6.7 6.6 6.9 6.8 6.9 7.0 7.0 6.9 6.7 6.6 6.5 6.4 6.4 6.1 5.9
7.0 7.0 6.9 6.9 6.9 6.8 6.8 6.7 6.6 6.8 7.1 6.8 6.8 6.8 6.9 6.6 6.7 6.4 6.3 6.2 6.3 6.0
7.4 7.5 7.4 7.1 7.0 7.0 7.0 6.8 6.8 6.8 7.1 7.1 7.0 7.1 6.8 6.6 6.6 6.4 6.3 6.2 6.1 6.0
7.6 7.6 7.6 7.5 7.3 7.2 7.2 7.2 7.0 7.0 7.2 7.3 7.1 7.3 7.2 6.8 6.6 6.6 6.5 6.2 6.2 6.2
7.9 7.7 7.7 7.7 7.7 7.5 7.6 7.7 7.5 7.4 7.5 7.7 7.5 7.5 7.4 7.1 6.9 6.5 6.4 6.2 6.1 6.1
7.9 7.9 7.9 7.9 7.9 7.9 7.9 8.0 7.9 7.7 7.7 7.9 8.0 7.8 7.7 7.2 7.0 6.7 6.5 6.3 6.1 6.2
7.8 7.9 7.9 7.9 7.9 8.0 8.0 7.9 8.0 8.0 7.8 7.9 8.0 7.9 7.7 7.5 7.1 6.7 6.8 6.5 6.3 6.4
7.7 7.8 7.8 7.8 7.8 7.8 7.9 7.9 7.8 7.9 7.8 7.7 7.8 7.8 7.8 7.7 7.1 6.9 6.8 6.7 6.6 6.6
7.8 7.8 7.8 7.9 7.8 7.6 7.6 7.7 7.7 7.6 7.5 7.6 7.5 7.6 7.7 7.7 7.2 7.2 7.0 6.8 6.8 6.5
8.0 8.0 8.0 7.9 7.9 7.9 7.8 7.7 7.6 7.6 7.6 7.5 7.3 7.3 7.6 7.5 7.2 7.0 7.2 7.0 6.6 6.5
7.9 7.9 7.9 7.8 7.7 7.7 7.6 7.5 7.5 7.3 7.3 7.2 7.1 7.2 7.3 7.2 7.1 6.9 6.7 6.9 6.6 6.3
Wind_Speed
14 10 8 11 9 9 9 9 14 14 13 14 15 11 12 6 4 5 4 5 1 2
11 13 13 8 10 9 8 9 12 18 11 14 13 13 10 5 5 5 5 4 3 2
16 14 11 12 10 11 10 8 12 13 12 10 11 12 9 5 7 6 5 4 5 4
16 16 14 11 10 12 9 11 9 14 14 12 10 9 8 7 7 7 7 6 7 5
16 16 16 15 11 11 12 9 11 13 14 14 12 11 11 10 9 10 9 7 7 6
17 17 17 16 13 13 13 13 13 12 14 15 14 13 13 12 9 10 9 10 9 9
18 17 15 14 15 13 12 14 13 13 14 15 14 14 14 14 10 11 8 9 9 9
14 14 13 14 14 14 12 14 14 13 12 13 13 11 15 14 12 10 10 9 9 8
14 14 14 13 13 13 14 12 13 12 13 13 11 15 17 14 11 12 12 11 10 10
13 15 13 13 13 14 13 11 13 13 12 14 14 15 17 17 10 10 11 12 12 10
11 13 12 12 12 10 10 11 10 11 12 10 10 14 19 20 12 10 11 11 13 14
8 9 10 11 8 6 6 6 6 4 6 7 6 18 20 19 13 11 12 11 12 13
6 6 6 6 7 5 4 5 5 6 6 8 6 15 20 20 11 11 9 10 13 17
6 6 6 6 4 5 5 5 5 5 5 6 8 11 18 19 10 9 8 9 10 10
Wind_Direction
187 199 213 179 180 183 191 183 186 193 184 183 186 185 171 168 181 165 190 165 255 156
200 196 204 204 180 183 184 188 182 184 187 187 185 178 173 168 177 167 161 161 184 194
203 200 199 207 188 182 187 190 179 178 186 183 184 173 171 182 176 161 165 161 172 216
193 202 207 201 200 194 182 190 177 178 183 184 186 178 179 180 185 170 160 185 172 177
192 196 202 210 201 187 196 187 190 180 184 187 187 186 185 191 186 176 179 179 150 172
195 198 202 201 207 197 193 196 191 186 188 189 190 188 191 190 188 180 187 165 173 177
196 200 200 199 202 202 196 197 197 198 190 192 191 191 189 193 187 181 179 170 173 177
194 198 202 200 200 205 206 198 202 201 197 194 198 198 190 194 186 180 170 170 171 179
186 195 202 201 201 204 210 200 201 208 202 197 205 187 179 186 182 178 177 174 182 188
185 191 199 204 204 206 209 206 203 208 207 204 205 180 173 172 182 180 181 184 181 183
186 188 192 197 209 207 204 209 209 206 215 207 207 173 171 166 172 176 189 189 189 189
190 186 186 195 194 184 177 182 195 173 197 197 188 169 176 168 177 184 190 190 195 197
167 177 187 166 157 143 142 151 161 181 186 192 155 175 176 175 184 189 195 187 193 194
105 100 97 109 121 134 141 153 176 192 193 180 158 186 189 180 180 192 186 195 199 198